Time,TemperatureF,DewpointF,PressureIn,WindDirection,WindDirectionDegrees,WindSpeedMPH,WindSpeedGustMPH,Humidity,HourlyPrecipIn,Conditions,Clouds,dailyrainin,SoftwareType,DateUTC
2013-05-14 00:00:00,41.5,30.6,30.11,North,10,0.0,2.0,65,0.00,,---,0.00,VWS V14.01,2013-05-14 04:00:00,
2013-05-14 00:01:00,41.6,30.7,30.11,North,10,0.0,2.0,65,0.00,,---,0.01,VWS V14.01,2013-05-14 04:01:00,
2013-05-14 00:02:00,41.5,30.6,30.11,North,9,0.0,2.0,65,0.00,,---,0.00,VWS V14.01,2013-05-14 04:02:00,
2013-05-14 00:04:00,41.5,30.6,30.11,NNW,335,4.0,4.0,65,0.00,,---,0.00,VWS V14.01,2013-05-14 04:04:00,
2013-05-14 00:09:00,41.6,30.7,30.11,NNW,333,0.0,4.0,65,0.00,,---,0.00,VWS V14.01,2013-05-14 04:09:00,
2013-05-14 00:14:00,41.9,31.0,30.11,NW,323,3.0,4.0,65,0.00,,---,0.00,VWS V14.01,2013-05-14 04:14:00,
2013-05-14 00:15:00,42.0,31.1,30.11,NW,322,0.0,4.0,65,0.00,,---,0.00,VWS V14.01,2013-05-14 04:15:00,
2013-05-14 00:19:00,42.2,30.9,30.11,WNW,301,5.0,6.0,64,0.00,,---,0.00,VWS V14.01,2013-05-14 04:19:00,
2013-05-14 00:24:00,42.2,30.9,30.11,NW,309,3.0,6.0,64,0.00,,---,0.00,VWS V14.01,2013-05-14 04:24:00,
2013-05-14 00:29:00,42.2,31.3,30.11,NNW,327,0.0,6.0,65,0.00,,---,0.00,VWS V14.01,2013-05-14 04:29:00,
2013-05-14 00:30:00,42.2,30.9,30.11,NNW,327,0.0,6.0,64,0.00,,---,0.00,VWS V14.01,2013-05-14 04:30:00,
2013-05-14 00:34:00,42.1,30.8,30.11,NNW,327,0.0,2.0,64,0.00,,---,0.00,VWS V14.01,2013-05-14 04:34:00,
2013-05-14 00:39:00,42.0,31.1,30.11,NNW,340,0.0,3.0,65,0.00,,---,0.00,VWS V14.01,2013-05-14 04:39:00,
2013-05-14 00:44:00,41.9,31.0,30.11,NNW,340,0.0,3.0,65,0.00,,---,0.00,VWS V14.01,2013-05-14 04:44:00,
2013-05-14 00:45:00,41.9,31.0,30.11,NNW,340,0.0,3.0,65,0.00,,---,0.00,VWS V14.01,2013-05-14 04:45:00,
2013-05-14 00:49:00,41.7,30.8,30.11,NNW,340,0.0,0.0,65,0.00,,---,0.00,VWS V14.01,2013-05-14 04:49:00,
2013-05-14 00:54:00,41.6,30.7,30.11,NNW,340,0.0,1.0,65,0.00,,---,0.00,VWS V14.01,2013-05-14 04:54:00,
2013-05-14 01:00:00,41.4,30.9,30.11,NNW,340,0.0,3.0,66,0.00,,---,0.00,VWS V14.01,2013-05-14 05:00:00,
2013-05-14 01:05:00,41.2,30.7,30.11,NNW,340,0.0,0.0,66,0.00,,---,0.00,VWS V14.01,2013-05-14 05:05:00,
2013-05-14 01:10:00,41.1,30.6,30.11,NNE,12,0.0,5.0,66,0.00,,---,0.00,VWS V14.01,2013-05-14 05:10:00,
2013-05-14 01:15:00,41.0,30.9,30.11,North,5,0.0,5.0,67,0.00,,---,0.00,VWS V14.01,2013-05-14 05:15:00,
2013-05-14 01:20:00,40.8,30.7,30.11,North,5,0.0,0.0,67,0.00,,---,0.00,VWS V14.01,2013-05-14 05:20:00,
2013-05-14 01:25:00,40.6,30.5,30.11,North,5,0.0,3.0,67,0.00,,---,0.00,VWS V14.01,2013-05-14 05:25:00,
2013-05-14 01:30:00,40.5,30.4,30.11,North,5,0.0,3.0,67,0.00,,---,0.00,VWS V14.01,2013-05-14 05:30:00,
2013-05-14 01:35:00,40.5,30.8,30.11,North,355,0.0,5.0,68,0.00,,---,0.00,VWS V14.01,2013-05-14 05:35:00,
2013-05-14 01:40:00,40.3,30.6,30.11,North,355,0.0,5.0,68,0.00,,---,0.00,VWS V14.01,2013-05-14 05:40:00,
2013-05-14 01:45:00,40.1,30.4,30.11,North,355,0.0,5.0,68,0.00,,---,0.00,VWS V14.01,2013-05-14 05:45:00,
2013-05-14 01:50:00,40.0,30.7,30.11,North,355,0.0,0.0,69,0.00,,---,0.00,VWS V14.01,2013-05-14 05:50:00,
2013-05-14 01:55:00,39.6,30.3,30.11,North,355,0.0,0.0,69,0.00,,---,0.00,VWS V14.01,2013-05-14 05:55:00,
2013-05-14 02:00:00,39.2,29.9,30.11,North,355,0.0,0.0,69,0.00,,---,0.00,VWS V14.01,2013-05-14 06:00:00,
2013-05-14 02:05:00,38.8,29.9,30.11,North,355,0.0,0.0,70,0.00,,---,0.00,VWS V14.01,2013-05-14 06:05:00,
2013-05-14 02:10:00,38.3,29.7,30.11,North,355,0.0,0.0,71,0.00,,---,0.00,VWS V14.01,2013-05-14 06:10:00,
2013-05-14 02:15:00,38.0,29.8,30.11,North,355,0.0,0.0,72,0.00,,---,0.00,VWS V14.01,2013-05-14 06:15:00,
2013-05-14 02:20:00,38.0,29.8,30.11,North,355,0.0,0.0,72,0.00,,---,0.00,VWS V14.01,2013-05-14 06:20:00,
2013-05-14 02:25:00,37.9,30.0,30.11,North,355,0.0,0.0,73,0.00,,---,0.00,VWS V14.01,2013-05-14 06:25:00,
2013-05-14 02:30:00,37.6,29.7,30.11,North,355,1.0,1.0,73,0.00,,---,0.00,VWS V14.01,2013-05-14 06:30:00,
2013-05-14 02:35:00,37.4,29.9,30.11,North,355,1.0,3.0,74,0.00,,---,0.00,VWS V14.01,2013-05-14 06:35:00,
2013-05-14 02:40:00,37.4,30.2,30.11,North,355,0.0,3.0,75,0.00,,---,0.00,VWS V14.01,2013-05-14 06:40:00,
2013-05-14 02:45:00,38.1,30.6,30.11,North,355,0.0,3.0,74,0.00,,---,0.00,VWS V14.01,2013-05-14 06:45:00,
2013-05-14 02:50:00,38.7,30.8,30.12,North,355,0.0,3.0,73,0.00,,---,0.00,VWS V14.01,2013-05-14 06:50:00,
2013-05-14 02:55:00,38.9,30.7,30.12,North,355,0.0,3.0,72,0.00,,---,0.00,VWS V14.01,2013-05-14 06:55:00,
2013-05-14 03:00:00,38.9,30.7,30.12,North,355,1.0,3.0,72,0.00,,---,0.00,VWS V14.01,2013-05-14 07:00:00,
2013-05-14 03:05:00,38.9,30.7,30.12,North,355,0.0,1.0,72,0.00,,---,0.00,VWS V14.01,2013-05-14 07:05:00,
2013-05-14 03:11:00,38.8,30.6,30.12,North,355,0.0,1.0,72,0.00,,---,0.00,VWS V14.01,2013-05-14 07:11:00,
2013-05-14 03:15:00,38.5,30.3,30.12,North,355,0.0,1.0,72,0.00,,---,0.00,VWS V14.01,2013-05-14 07:15:00,
2013-05-14 03:16:00,38.5,30.3,30.12,North,355,0.0,1.0,72,0.00,,---,0.00,VWS V14.01,2013-05-14 07:16:00,
2013-05-14 03:21:00,38.4,30.2,30.12,North,355,0.0,0.0,72,0.00,,---,0.00,VWS V14.01,2013-05-14 07:21:00,
2013-05-14 03:26:00,38.2,30.0,30.12,North,355,0.0,0.0,72,0.00,,---,0.00,VWS V14.01,2013-05-14 07:26:00,
2013-05-14 03:30:00,37.9,29.7,30.12,North,355,0.0,0.0,72,0.00,,---,0.00,VWS V14.01,2013-05-14 07:30:00,
2013-05-14 03:31:00,37.9,29.7,30.12,North,355,0.0,0.0,72,0.00,,---,0.00,VWS V14.01,2013-05-14 07:31:00,
2013-05-14 03:36:00,37.6,29.7,30.12,North,355,0.0,0.0,73,0.00,,---,0.00,VWS V14.01,2013-05-14 07:36:00,
2013-05-14 03:41:00,37.2,29.4,30.12,North,355,0.0,0.0,73,0.00,,---,0.00,VWS V14.01,2013-05-14 07:41:00,
2013-05-14 03:45:00,36.9,29.4,30.12,North,355,0.0,0.0,74,0.00,,---,0.00,VWS V14.01,2013-05-14 07:45:00,
2013-05-14 03:46:00,36.9,29.4,30.12,North,355,0.0,0.0,74,0.00,,---,0.00,VWS V14.01,2013-05-14 07:46:00,
2013-05-14 03:51:00,36.9,29.4,30.12,North,355,0.0,0.0,74,0.00,,---,0.00,VWS V14.01,2013-05-14 07:51:00,
2013-05-14 03:57:00,37.0,29.8,30.12,North,355,0.0,2.0,75,0.00,,---,0.00,VWS V14.01,2013-05-14 07:57:00,
2013-05-14 04:00:00,37.0,29.8,30.11,North,355,0.0,2.0,75,0.00,,---,0.00,VWS V14.01,2013-05-14 08:00:00,
2013-05-14 04:02:00,37.1,29.9,30.11,North,355,0.0,0.0,75,0.00,,---,0.00,VWS V14.01,2013-05-14 08:02:00,
2013-05-14 04:07:00,37.1,29.6,30.11,North,355,0.0,1.0,74,0.00,,---,0.00,VWS V14.01,2013-05-14 08:07:00,
2013-05-14 04:12:00,37.1,29.9,30.11,North,355,0.0,1.0,75,0.00,,---,0.00,VWS V14.01,2013-05-14 08:12:00,
2013-05-14 04:15:00,37.1,29.6,30.11,North,355,0.0,1.0,74,0.00,,---,0.00,VWS V14.01,2013-05-14 08:15:00,
2013-05-14 04:17:00,37.1,29.6,30.11,North,355,0.0,0.0,74,0.00,,---,0.00,VWS V14.01,2013-05-14 08:17:00,
2013-05-14 04:22:00,37.0,29.5,30.11,North,355,0.0,0.0,74,0.00,,---,0.00,VWS V14.01,2013-05-14 08:22:00,
2013-05-14 04:27:00,36.6,29.1,30.11,North,355,0.0,0.0,74,0.00,,---,0.00,VWS V14.01,2013-05-14 08:27:00,
2013-05-14 04:30:00,36.3,29.1,30.11,North,355,0.0,0.0,75,0.00,,---,0.00,VWS V14.01,2013-05-14 08:30:00,
2013-05-14 04:32:00,36.2,29.0,30.11,North,355,0.0,0.0,75,0.00,,---,0.00,VWS V14.01,2013-05-14 08:32:00,
2013-05-14 04:37:00,35.9,28.8,30.12,North,355,0.0,0.0,75,0.00,,---,0.00,VWS V14.01,2013-05-14 08:37:00,
2013-05-14 04:42:00,35.7,28.9,30.11,North,355,0.0,0.0,76,0.00,,---,0.00,VWS V14.01,2013-05-14 08:42:00,
2013-05-14 04:45:00,35.8,29.0,30.11,North,355,0.0,0.0,76,0.00,,---,0.00,VWS V14.01,2013-05-14 08:45:00,
2013-05-14 04:47:00,35.9,29.1,30.12,North,355,0.0,0.0,76,0.00,,---,0.00,VWS V14.01,2013-05-14 08:47:00,
2013-05-14 04:52:00,35.9,29.1,30.11,North,355,0.0,0.0,76,0.00,,---,0.00,VWS V14.01,2013-05-14 08:52:00,
2013-05-14 04:57:00,35.8,29.0,30.11,North,355,0.0,0.0,76,0.00,,---,0.00,VWS V14.01,2013-05-14 08:57:00,
2013-05-14 05:00:00,35.7,28.9,30.11,North,355,0.0,0.0,76,0.00,,---,0.00,VWS V14.01,2013-05-14 09:00:00,
2013-05-14 05:02:00,35.7,28.9,30.12,North,355,0.0,0.0,76,0.00,,---,0.00,VWS V14.01,2013-05-14 09:02:00,
2013-05-14 05:07:00,35.6,28.8,30.12,North,355,0.0,0.0,76,0.00,,---,0.00,VWS V14.01,2013-05-14 09:07:00,
2013-05-14 05:12:00,35.4,28.6,30.12,North,355,0.0,0.0,76,0.00,,---,0.00,VWS V14.01,2013-05-14 09:12:00,
2013-05-14 05:15:00,35.2,28.7,30.12,North,355,0.0,0.0,77,0.00,,---,0.00,VWS V14.01,2013-05-14 09:15:00,
2013-05-14 05:17:00,35.1,28.6,30.12,North,355,0.0,0.0,77,0.00,,---,0.00,VWS V14.01,2013-05-14 09:17:00,
2013-05-14 05:22:00,34.9,28.4,30.12,North,355,0.0,0.0,77,0.00,,---,0.00,VWS V14.01,2013-05-14 09:22:00,
2013-05-14 05:27:00,34.7,28.2,30.12,North,355,0.0,0.0,77,0.00,,---,0.00,VWS V14.01,2013-05-14 09:27:00,
2013-05-14 05:30:00,34.5,28.0,30.12,North,355,0.0,0.0,77,0.00,,---,0.00,VWS V14.01,2013-05-14 09:30:00,
2013-05-14 05:32:00,34.4,28.0,30.12,North,355,0.0,0.0,77,0.00,,---,0.00,VWS V14.01,2013-05-14 09:32:00,
2013-05-14 05:37:00,34.4,28.3,30.12,North,355,0.0,2.0,78,0.00,,---,0.00,VWS V14.01,2013-05-14 09:37:00,
2013-05-14 05:42:00,34.4,28.3,30.12,North,355,0.0,2.0,78,0.00,,---,0.00,VWS V14.01,2013-05-14 09:42:00,
2013-05-14 05:45:00,34.6,28.5,30.12,North,355,0.0,2.0,78,0.00,,---,0.00,VWS V14.01,2013-05-14 09:45:00,
2013-05-14 05:48:00,34.7,28.5,30.12,North,355,0.0,0.0,78,0.00,,---,0.00,VWS V14.01,2013-05-14 09:48:00,
2013-05-14 05:53:00,34.8,28.6,30.12,North,355,0.0,0.0,78,0.00,,---,0.00,VWS V14.01,2013-05-14 09:53:00,
2013-05-14 05:58:00,34.8,28.6,30.12,North,355,0.0,0.0,78,0.00,,---,0.00,VWS V14.01,2013-05-14 09:58:00,
2013-05-14 06:00:00,34.9,28.8,30.12,North,355,0.0,0.0,78,0.00,,---,0.00,VWS V14.01,2013-05-14 10:00:00,
2013-05-14 06:03:00,34.9,28.8,30.12,North,355,0.0,0.0,78,0.00,,---,0.00,VWS V14.01,2013-05-14 10:03:00,
2013-05-14 06:08:00,35.1,28.9,30.12,North,355,0.0,0.0,78,0.00,,---,0.00,VWS V14.01,2013-05-14 10:08:00,
2013-05-14 06:13:00,35.4,29.2,30.12,North,355,0.0,0.0,78,0.00,,---,0.00,VWS V14.01,2013-05-14 10:13:00,
2013-05-14 06:15:00,35.7,29.5,30.13,North,355,0.0,0.0,78,0.00,,---,0.00,VWS V14.01,2013-05-14 10:15:00,
2013-05-14 06:18:00,35.9,29.7,30.13,North,355,0.0,0.0,78,0.00,,---,0.00,VWS V14.01,2013-05-14 10:18:00,
2013-05-14 06:23:00,36.4,30.2,30.13,North,355,0.0,0.0,78,0.00,,---,0.00,VWS V14.01,2013-05-14 10:23:00,
2013-05-14 06:28:00,36.9,30.7,30.13,North,355,0.0,0.0,78,0.00,,---,0.00,VWS V14.01,2013-05-14 10:28:00,
2013-05-14 06:30:00,37.1,30.6,30.13,North,355,0.0,0.0,77,0.00,,---,0.00,VWS V14.01,2013-05-14 10:30:00,
2013-05-14 06:33:00,37.4,30.9,30.13,North,355,0.0,0.0,77,0.00,,---,0.00,VWS V14.01,2013-05-14 10:33:00,
2013-05-14 06:38:00,37.6,30.7,30.13,North,355,0.0,1.0,76,0.00,,---,0.00,VWS V14.01,2013-05-14 10:38:00,
2013-05-14 06:43:00,37.7,30.5,30.14,North,355,0.0,1.0,75,0.00,,---,0.00,VWS V14.01,2013-05-14 10:43:00,
2013-05-14 06:45:00,37.7,30.5,30.14,North,355,0.0,1.0,75,0.00,,---,0.00,VWS V14.01,2013-05-14 10:45:00,
2013-05-14 06:48:00,37.8,30.6,30.13,North,355,0.0,0.0,75,0.00,,---,0.00,VWS V14.01,2013-05-14 10:48:00,
2013-05-14 06:53:00,38.1,30.9,30.13,North,355,0.0,1.0,75,0.00,,---,0.00,VWS V14.01,2013-05-14 10:53:00,
2013-05-14 06:58:00,38.4,30.9,30.13,North,355,0.0,4.0,74,0.00,,---,0.00,VWS V14.01,2013-05-14 10:58:00,
2013-05-14 07:00:00,38.7,31.1,30.13,NNW,347,3.0,4.0,74,0.00,,---,0.00,VWS V14.01,2013-05-14 11:00:00,
2013-05-14 07:03:00,39.1,31.2,30.13,NW,317,3.0,5.0,73,0.00,,---,0.00,VWS V14.01,2013-05-14 11:03:00,
2013-05-14 07:09:00,39.9,30.9,30.14,NW,315,5.0,6.0,70,0.01,,---,0.01,VWS V14.01,2013-05-14 11:09:00,
2013-05-14 07:14:00,40.7,31.0,30.14,NW,313,3.0,6.0,68,0.01,,---,0.01,VWS V14.01,2013-05-14 11:14:00,
2013-05-14 07:15:00,41.0,31.3,30.14,NW,312,1.0,6.0,68,0.01,,---,0.01,VWS V14.01,2013-05-14 11:15:00,
2013-05-14 07:19:00,41.3,31.2,30.14,NW,304,0.0,6.0,67,0.01,,---,0.01,VWS V14.01,2013-05-14 11:19:00,
2013-05-14 07:24:00,41.9,31.0,30.14,NW,317,2.0,7.0,65,0.01,,---,0.01,VWS V14.01,2013-05-14 11:24:00,
2013-05-14 07:29:00,42.4,30.7,30.14,NNW,348,3.0,8.0,63,0.01,,---,0.01,VWS V14.01,2013-05-14 11:29:00,
2013-05-14 07:30:00,42.5,30.8,30.14,NNW,340,1.0,8.0,63,0.01,,---,0.01,VWS V14.01,2013-05-14 11:30:00,
2013-05-14 07:34:00,42.7,31.0,30.14,NNW,328,7.0,7.0,63,0.01,,---,0.01,VWS V14.01,2013-05-14 11:34:00,
2013-05-14 07:39:00,43.0,30.5,30.14,NW,305,5.0,9.0,61,0.01,,---,0.01,VWS V14.01,2013-05-14 11:39:00,
2013-05-14 07:44:00,43.2,30.7,30.14,NNW,327,1.0,9.0,61,0.01,,---,0.01,VWS V14.01,2013-05-14 11:44:00,
2013-05-14 07:45:00,43.3,30.8,30.14,NW,325,5.0,9.0,61,0.01,,---,0.01,VWS V14.01,2013-05-14 11:45:00,
2013-05-14 07:49:00,43.4,30.5,30.14,WNW,297,8.0,11.0,60,0.01,,---,0.01,VWS V14.01,2013-05-14 11:49:00,
2013-05-14 07:54:00,43.7,30.3,30.14,NNW,331,2.0,11.0,59,0.01,,---,0.01,VWS V14.01,2013-05-14 11:54:00,
2013-05-14 07:59:00,44.1,30.7,30.14,WNW,290,9.0,11.0,59,0.01,,---,0.01,VWS V14.01,2013-05-14 11:59:00,
2013-05-14 08:00:00,44.2,30.8,30.14,WNW,290,5.0,11.0,59,0.01,,---,0.01,VWS V14.01,2013-05-14 12:00:00,
2013-05-14 08:04:00,44.3,30.9,30.14,WNW,301,0.0,7.0,59,0.01,,---,0.01,VWS V14.01,2013-05-14 12:04:00,
2013-05-14 08:09:00,44.7,31.7,30.14,West,276,9.0,9.0,60,0.01,,---,0.01,VWS V14.01,2013-05-14 12:09:00,
2013-05-14 08:14:00,45.0,31.1,30.15,North,5,0.0,9.0,58,0.01,,---,0.01,VWS V14.01,2013-05-14 12:14:00,
2013-05-14 08:15:00,45.0,31.1,30.15,NNW,331,1.0,9.0,58,0.01,,---,0.01,VWS V14.01,2013-05-14 12:15:00,
2013-05-14 08:19:00,45.3,31.4,30.15,West,265,1.0,7.0,58,0.00,,---,0.01,VWS V14.01,2013-05-14 12:19:00,
2013-05-14 08:24:00,45.5,31.2,30.15,West,275,2.0,7.0,57,0.00,,---,0.01,VWS V14.01,2013-05-14 12:24:00,
2013-05-14 08:29:00,45.9,32.0,30.14,NW,315,0.0,7.0,58,0.00,,---,0.01,VWS V14.01,2013-05-14 12:29:00,
2013-05-14 08:30:00,46.0,31.6,30.14,NW,315,2.0,7.0,57,0.00,,---,0.01,VWS V14.01,2013-05-14 12:30:00,
2013-05-14 08:34:00,46.3,31.0,30.15,NW,315,4.0,7.0,55,0.00,,---,0.01,VWS V14.01,2013-05-14 12:34:00,
2013-05-14 08:39:00,46.3,30.6,30.15,North,5,5.0,9.0,54,0.00,,---,0.01,VWS V14.01,2013-05-14 12:39:00,
2013-05-14 08:45:00,46.4,31.1,30.14,NW,325,4.0,9.0,55,0.00,,---,0.01,VWS V14.01,2013-05-14 12:45:00,
2013-05-14 08:50:00,46.7,31.0,30.14,NW,311,3.0,6.0,54,0.00,,---,0.01,VWS V14.01,2013-05-14 12:50:00,
2013-05-14 08:55:00,46.9,31.1,30.14,NW,322,5.0,9.0,54,0.00,,---,0.01,VWS V14.01,2013-05-14 12:55:00,
2013-05-14 09:00:00,47.1,31.3,30.14,NW,317,2.0,9.0,54,0.00,,---,0.01,VWS V14.01,2013-05-14 13:00:00,
2013-05-14 09:05:00,47.4,31.6,30.14,WNW,296,7.0,7.0,54,0.00,,---,0.01,VWS V14.01,2013-05-14 13:05:00,
2013-05-14 09:10:00,47.6,30.4,30.14,North,360,2.0,9.0,51,0.00,,---,0.01,VWS V14.01,2013-05-14 13:10:00,
2013-05-14 09:15:00,47.7,30.5,30.14,WNW,282,3.0,10.0,51,0.00,,---,0.01,VWS V14.01,2013-05-14 13:15:00,
2013-05-14 09:20:00,48.5,31.7,30.13,NW,322,5.0,10.0,52,0.00,,---,0.01,VWS V14.01,2013-05-14 13:20:00,
2013-05-14 09:25:00,48.7,29.9,30.13,NW,326,5.0,10.0,48,0.00,,---,0.01,VWS V14.01,2013-05-14 13:25:00,
2013-05-14 09:30:00,48.8,29.5,30.13,WSW,242,3.0,11.0,47,0.00,,---,0.01,VWS V14.01,2013-05-14 13:30:00,
2013-05-14 09:36:00,49.4,30.0,30.13,NNW,329,6.0,11.0,47,0.00,,---,0.01,VWS V14.01,2013-05-14 13:36:00,
2013-05-14 09:41:00,49.4,29.5,30.13,North,5,5.0,13.0,46,0.00,,---,0.01,VWS V14.01,2013-05-14 13:41:00,
2013-05-14 09:45:00,49.7,28.7,30.13,NNW,343,9.0,13.0,44,0.00,,---,0.01,VWS V14.01,2013-05-14 13:45:00,
2013-05-14 09:46:00,49.7,28.7,30.13,West,266,6.0,9.0,44,0.00,,---,0.01,VWS V14.01,2013-05-14 13:46:00,
2013-05-14 09:51:00,50.1,29.0,30.13,NW,318,1.0,10.0,44,0.00,,---,0.01,VWS V14.01,2013-05-14 13:51:00,
2013-05-14 09:56:00,50.3,28.7,30.13,West,263,5.0,18.0,43,0.00,,---,0.01,VWS V14.01,2013-05-14 13:56:00,
2013-05-14 10:00:00,50.7,29.6,30.13,NW,325,3.0,18.0,44,0.00,,---,0.01,VWS V14.01,2013-05-14 14:00:00,
2013-05-14 10:02:00,50.8,30.2,30.12,NNW,330,3.0,6.0,45,0.00,,---,0.01,VWS V14.01,2013-05-14 14:02:00,
2013-05-14 10:07:00,50.9,28.1,30.12,WNW,286,7.0,12.0,41,0.00,,---,0.01,VWS V14.01,2013-05-14 14:07:00,
2013-05-14 10:12:00,50.9,26.8,30.13,NNW,334,4.0,12.0,39,0.00,,---,0.01,VWS V14.01,2013-05-14 14:12:00,
2013-05-14 10:15:00,50.9,26.8,30.12,NNW,331,8.0,12.0,39,0.00,,---,0.01,VWS V14.01,2013-05-14 14:15:00,
2013-05-14 10:17:00,50.9,26.8,30.12,NW,306,3.0,11.0,39,0.00,,---,0.01,VWS V14.01,2013-05-14 14:17:00,
2013-05-14 10:22:00,51.1,27.6,30.12,NNW,344,6.0,12.0,40,0.00,,---,0.01,VWS V14.01,2013-05-14 14:22:00,
2013-05-14 10:27:00,51.4,27.3,30.12,NW,322,7.0,16.0,39,0.00,,---,0.01,VWS V14.01,2013-05-14 14:27:00,
2013-05-14 10:30:00,51.0,27.5,30.12,NW,307,5.0,16.0,40,0.00,,---,0.01,VWS V14.01,2013-05-14 14:30:00,
2013-05-14 10:32:00,51.0,26.9,30.12,NW,306,2.0,5.0,39,0.00,,---,0.01,VWS V14.01,2013-05-14 14:32:00,
2013-05-14 10:37:00,52.1,27.9,30.12,NNE,31,2.0,6.0,39,0.00,,---,0.01,VWS V14.01,2013-05-14 14:37:00,
2013-05-14 10:42:00,51.8,27.6,30.12,WNW,300,6.0,11.0,39,0.00,,---,0.01,VWS V14.01,2013-05-14 14:42:00,
2013-05-14 10:45:00,52.0,29.0,30.12,WNW,296,4.0,11.0,41,0.00,,---,0.01,VWS V14.01,2013-05-14 14:45:00,
2013-05-14 10:47:00,52.1,29.7,30.12,West,269,10.0,10.0,42,0.00,,---,0.01,VWS V14.01,2013-05-14 14:47:00,
2013-05-14 10:52:00,51.4,27.3,30.12,WNW,286,7.0,15.0,39,0.00,,---,0.01,VWS V14.01,2013-05-14 14:52:00,
2013-05-14 10:57:00,51.3,27.8,30.12,SW,229,6.0,15.0,40,0.00,,---,0.01,VWS V14.01,2013-05-14 14:57:00,
2013-05-14 11:00:00,52.0,27.2,30.12,West,273,9.0,15.0,38,0.00,,---,0.01,VWS V14.01,2013-05-14 15:00:00,
2013-05-14 11:02:00,52.0,27.8,30.12,WNW,282,14.0,14.0,39,0.00,,---,0.01,VWS V14.01,2013-05-14 15:02:00,
2013-05-14 11:07:00,51.9,24.4,30.12,WNW,303,8.0,16.0,34,0.00,,---,0.01,VWS V14.01,2013-05-14 15:07:00,
2013-05-14 11:12:00,51.9,26.5,30.11,NW,315,13.0,16.0,37,0.00,,---,0.01,VWS V14.01,2013-05-14 15:12:00,
2013-05-14 11:15:00,51.9,25.8,30.11,North,5,8.0,17.0,36,0.00,,---,0.01,VWS V14.01,2013-05-14 15:15:00,
2013-05-14 11:17:00,52.1,27.3,30.11,NNW,341,8.0,11.0,38,0.00,,---,0.01,VWS V14.01,2013-05-14 15:17:00,
2013-05-14 11:22:00,52.7,27.8,30.11,West,269,10.0,13.0,38,0.00,,---,0.01,VWS V14.01,2013-05-14 15:22:00,
2013-05-14 11:27:00,52.3,27.5,30.11,WNW,300,12.0,15.0,38,0.00,,---,0.01,VWS V14.01,2013-05-14 15:27:00,
2013-05-14 11:30:00,52.0,25.9,30.11,West,261,7.0,15.0,36,0.00,,---,0.01,VWS V14.01,2013-05-14 15:30:00,
2013-05-14 11:32:00,52.1,26.6,30.11,SW,234,11.0,12.0,37,0.00,,---,0.01,VWS V14.01,2013-05-14 15:32:00,
2013-05-14 11:37:00,52.3,26.8,30.11,NNE,17,2.0,12.0,37,0.00,,---,0.01,VWS V14.01,2013-05-14 15:37:00,
2013-05-14 11:43:00,53.0,27.4,30.11,West,271,10.0,15.0,37,0.00,,---,0.01,VWS V14.01,2013-05-14 15:43:00,
2013-05-14 11:45:00,53.0,26.8,30.11,West,267,9.0,15.0,36,0.00,,---,0.01,VWS V14.01,2013-05-14 15:45:00,
2013-05-14 11:48:00,53.1,28.2,30.11,NNW,335,8.0,15.0,38,0.00,,---,0.01,VWS V14.01,2013-05-14 15:48:00,
2013-05-14 11:53:00,52.9,26.7,30.11,WNW,286,13.0,15.0,36,0.00,,---,0.01,VWS V14.01,2013-05-14 15:53:00,
2013-05-14 11:58:00,52.8,26.6,30.10,WSW,257,7.0,16.0,36,0.00,,---,0.01,VWS V14.01,2013-05-14 15:58:00,
2013-05-14 12:00:00,52.8,26.6,30.10,West,276,5.0,16.0,36,0.00,,---,0.01,VWS V14.01,2013-05-14 16:00:00,
2013-05-14 12:03:00,52.7,27.2,30.10,NW,305,2.0,9.0,37,0.00,,---,0.01,VWS V14.01,2013-05-14 16:03:00,
2013-05-14 12:08:00,52.5,27.6,30.10,WNW,286,13.0,17.0,38,0.00,,---,0.01,VWS V14.01,2013-05-14 16:08:00,
2013-05-14 12:13:00,53.4,26.5,30.10,West,269,4.0,17.0,35,0.00,,---,0.01,VWS V14.01,2013-05-14 16:13:00,
2013-05-14 12:15:00,53.7,26.0,30.10,NNW,348,8.0,19.0,34,0.00,,---,0.01,VWS V14.01,2013-05-14 16:15:00,
2013-05-14 12:18:00,53.9,26.2,30.10,NW,317,11.0,16.0,34,0.00,,---,0.01,VWS V14.01,2013-05-14 16:18:00,
2013-05-14 12:23:00,53.7,26.0,30.10,WNW,285,10.0,20.0,34,0.00,,---,0.01,VWS V14.01,2013-05-14 16:23:00,
2013-05-14 12:28:00,53.7,27.4,30.10,WSW,253,7.0,20.0,36,0.00,,---,0.01,VWS V14.01,2013-05-14 16:28:00,
2013-05-14 12:30:00,53.8,26.8,30.10,NW,310,11.0,20.0,35,0.00,,---,0.01,VWS V14.01,2013-05-14 16:30:00,
2013-05-14 12:33:00,54.1,27.1,30.09,WSW,257,6.0,11.0,35,0.00,,---,0.01,VWS V14.01,2013-05-14 16:33:00,
2013-05-14 12:38:00,54.4,27.3,30.09,NW,317,3.0,11.0,35,0.00,,---,0.01,VWS V14.01,2013-05-14 16:38:00,
2013-05-14 12:43:00,54.5,26.0,30.09,West,269,8.0,16.0,33,0.00,,---,0.01,VWS V14.01,2013-05-14 16:43:00,
2013-05-14 12:45:00,54.2,26.5,30.09,NW,313,7.0,20.0,34,0.00,,---,0.01,VWS V14.01,2013-05-14 16:45:00,
2013-05-14 12:48:00,54.5,26.0,30.09,WNW,284,3.0,14.0,33,0.00,,---,0.01,VWS V14.01,2013-05-14 16:48:00,
2013-05-14 12:53:00,55.4,26.8,30.10,NW,313,10.0,16.0,33,0.00,,---,0.01,VWS V14.01,2013-05-14 16:53:00,
2013-05-14 12:58:00,54.8,25.5,30.10,NNW,328,5.0,16.0,32,0.00,,---,0.01,VWS V14.01,2013-05-14 16:58:00,
2013-05-14 13:00:00,54.6,26.8,30.10,NW,306,7.0,16.0,34,0.00,,---,0.01,VWS V14.01,2013-05-14 17:00:00,
2013-05-14 13:03:00,54.7,26.2,30.10,NNW,327,4.0,10.0,33,0.00,,---,0.01,VWS V14.01,2013-05-14 17:03:00,
2013-05-14 13:08:00,54.6,26.8,30.09,West,277,6.0,10.0,34,0.00,,---,0.01,VWS V14.01,2013-05-14 17:08:00,
2013-05-14 13:13:00,54.5,26.7,30.10,SW,236,14.0,14.0,34,0.00,,---,0.01,VWS V14.01,2013-05-14 17:13:00,
2013-05-14 13:15:00,54.5,27.4,30.10,WNW,286,5.0,14.0,35,0.00,,---,0.01,VWS V14.01,2013-05-14 17:15:00,
2013-05-14 13:19:00,54.6,26.1,30.10,NW,320,5.0,11.0,33,0.00,,---,0.01,VWS V14.01,2013-05-14 17:19:00,
2013-05-14 13:24:00,54.7,26.9,30.09,WNW,290,3.0,11.0,34,0.00,,---,0.01,VWS V14.01,2013-05-14 17:24:00,
2013-05-14 13:29:00,55.5,27.6,30.09,SSE,154,3.0,11.0,34,0.00,,---,0.01,VWS V14.01,2013-05-14 17:29:00,
2013-05-14 13:30:00,55.9,27.2,30.09,WNW,291,9.0,13.0,33,0.00,,---,0.01,VWS V14.01,2013-05-14 17:30:00,
2013-05-14 13:34:00,56.1,28.1,30.09,NW,320,13.0,15.0,34,0.00,,---,0.01,VWS V14.01,2013-05-14 17:34:00,
2013-05-14 13:39:00,55.7,27.8,30.09,WSW,246,5.0,16.0,34,0.00,,---,0.01,VWS V14.01,2013-05-14 17:39:00,
2013-05-14 13:44:00,55.9,28.7,30.09,WSW,253,9.0,16.0,35,0.00,,---,0.01,VWS V14.01,2013-05-14 17:44:00,
2013-05-14 13:45:00,55.8,25.6,30.09,NW,317,5.0,16.0,31,0.00,,---,0.01,VWS V14.01,2013-05-14 17:45:00,
2013-05-14 13:49:00,55.7,27.1,30.08,SW,235,8.0,9.0,33,0.00,,---,0.01,VWS V14.01,2013-05-14 17:49:00,
2013-05-14 13:54:00,55.9,24.9,30.08,West,281,10.0,18.0,30,0.00,,---,0.01,VWS V14.01,2013-05-14 17:54:00,
2013-05-14 13:59:00,55.9,24.1,30.08,West,263,0.0,18.0,29,0.00,,---,0.01,VWS V14.01,2013-05-14 17:59:00,
2013-05-14 14:00:00,56.3,26.1,30.08,WNW,290,6.0,18.0,31,0.00,,---,0.01,VWS V14.01,2013-05-14 18:00:00,
2013-05-14 14:04:00,56.8,24.9,30.08,NNW,332,0.0,13.0,29,0.00,,---,0.01,VWS V14.01,2013-05-14 18:04:00,
2013-05-14 14:09:00,56.8,24.1,30.08,WNW,283,0.0,13.0,28,0.00,,---,0.01,VWS V14.01,2013-05-14 18:09:00,
2013-05-14 14:14:00,56.5,24.6,30.08,WSW,256,7.0,13.0,29,0.00,,---,0.01,VWS V14.01,2013-05-14 18:14:00,
2013-05-14 14:15:00,56.5,25.5,30.08,WNW,303,9.0,13.0,30,0.00,,---,0.01,VWS V14.01,2013-05-14 18:15:00,
2013-05-14 14:19:00,56.8,27.3,30.08,NW,313,8.0,10.0,32,0.00,,---,0.01,VWS V14.01,2013-05-14 18:19:00,
2013-05-14 14:24:00,56.9,25.0,30.07,WNW,295,14.0,21.0,29,0.00,,---,0.01,VWS V14.01,2013-05-14 18:24:00,
2013-05-14 14:29:00,57.1,26.0,30.07,West,273,7.0,21.0,30,0.00,,---,0.01,VWS V14.01,2013-05-14 18:29:00,
2013-05-14 14:30:00,57.4,28.5,30.07,WNW,290,5.0,21.0,33,0.00,,---,0.01,VWS V14.01,2013-05-14 18:30:00,
2013-05-14 14:34:00,57.9,25.9,30.07,NNE,30,6.0,6.0,29,0.00,,---,0.01,VWS V14.01,2013-05-14 18:34:00,
2013-05-14 14:39:00,57.8,25.8,30.07,West,267,12.0,17.0,29,0.00,,---,0.01,VWS V14.01,2013-05-14 18:39:00,
2013-05-14 14:44:00,57.0,25.1,30.07,West,264,1.0,18.0,29,0.00,,---,0.01,VWS V14.01,2013-05-14 18:44:00,
2013-05-14 14:45:00,57.2,26.1,30.07,West,262,5.0,18.0,30,0.00,,---,0.01,VWS V14.01,2013-05-14 18:45:00,
2013-05-14 14:49:00,57.4,25.4,30.07,North,5,8.0,16.0,29,0.00,,---,0.01,VWS V14.01,2013-05-14 18:49:00,
2013-05-14 14:54:00,57.7,25.7,30.07,NW,313,7.0,18.0,29,0.00,,---,0.01,VWS V14.01,2013-05-14 18:54:00,
2013-05-14 14:59:00,57.1,26.0,30.06,SSE,165,4.0,18.0,30,0.00,,---,0.01,VWS V14.01,2013-05-14 18:59:00,
2013-05-14 15:00:00,57.2,26.1,30.06,WSW,246,5.0,18.0,30,0.00,,---,0.01,VWS V14.01,2013-05-14 19:00:00,
2013-05-14 15:04:00,57.6,24.8,30.07,NW,308,9.0,13.0,28,0.00,,---,0.01,VWS V14.01,2013-05-14 19:04:00,
2013-05-14 15:09:00,57.5,25.5,30.06,SW,224,5.0,13.0,29,0.00,,---,0.01,VWS V14.01,2013-05-14 19:09:00,
2013-05-14 15:14:00,57.4,25.4,30.06,SW,217,8.0,16.0,29,0.00,,---,0.01,VWS V14.01,2013-05-14 19:14:00,
2013-05-14 15:15:00,57.5,24.7,30.06,West,259,9.0,16.0,28,0.00,,---,0.01,VWS V14.01,2013-05-14 19:15:00,
2013-05-14 15:20:00,57.9,25.9,30.06,North,360,8.0,14.0,29,0.00,,---,0.01,VWS V14.01,2013-05-14 19:20:00,
2013-05-14 15:25:00,58.1,24.3,30.06,NW,319,13.0,14.0,27,0.00,,---,0.01,VWS V14.01,2013-05-14 19:25:00,
2013-05-14 15:30:00,58.9,25.9,30.06,NW,321,12.0,18.0,28,0.01,,---,0.02,VWS V14.01,2013-05-14 19:30:00,
2013-05-14 15:35:00,58.8,26.6,30.05,WSW,257,5.0,9.0,29,0.01,,---,0.02,VWS V14.01,2013-05-14 19:35:00,
2013-05-14 15:40:00,59.0,26.0,30.05,WSW,244,7.0,13.0,28,0.01,,---,0.02,VWS V14.01,2013-05-14 19:40:00,
2013-05-14 15:45:00,58.9,26.7,30.04,WNW,286,12.0,20.0,29,0.01,,---,0.02,VWS V14.01,2013-05-14 19:45:00,
2013-05-14 15:50:00,58.7,24.8,30.04,WSW,240,9.0,14.0,27,0.01,,---,0.02,VWS V14.01,2013-05-14 19:50:00,
2013-05-14 15:55:00,58.7,24.8,30.04,SW,219,10.0,14.0,27,0.01,,---,0.02,VWS V14.01,2013-05-14 19:55:00,
2013-05-14 16:00:00,58.4,24.6,30.04,WSW,257,7.0,14.0,27,0.01,,---,0.02,VWS V14.01,2013-05-14 20:00:00,
2013-05-14 16:05:00,58.1,25.2,30.05,West,274,7.0,16.0,28,0.01,,---,0.02,VWS V14.01,2013-05-14 20:05:00,
2013-05-14 16:10:00,58.4,24.6,30.04,West,267,6.0,19.0,27,0.01,,---,0.02,VWS V14.01,2013-05-14 20:10:00,
2013-05-14 16:15:00,59.0,26.0,30.04,West,280,2.0,19.0,28,0.01,,---,0.02,VWS V14.01,2013-05-14 20:15:00,
2013-05-14 16:20:00,59.0,23.2,30.04,WSW,246,5.0,11.0,25,0.01,,---,0.02,VWS V14.01,2013-05-14 20:20:00,
2013-05-14 16:25:00,58.4,24.6,30.03,WNW,288,6.0,13.0,27,0.01,,---,0.02,VWS V14.01,2013-05-14 20:25:00,
2013-05-14 16:30:00,58.4,24.6,30.03,WNW,302,10.0,13.0,27,0.01,,---,0.02,VWS V14.01,2013-05-14 20:30:00,
2013-05-14 16:35:00,58.7,23.9,30.03,WNW,288,17.0,18.0,26,0.00,,---,0.02,VWS V14.01,2013-05-14 20:35:00,
2013-05-14 16:40:00,58.7,24.8,30.04,WNW,293,10.0,18.0,27,0.00,,---,0.02,VWS V14.01,2013-05-14 20:40:00,
2013-05-14 16:45:00,59.0,26.8,30.03,SSW,202,6.0,18.0,29,0.00,,---,0.02,VWS V14.01,2013-05-14 20:45:00,
2013-05-14 16:50:00,59.0,26.0,30.03,West,265,11.0,11.0,28,0.00,,---,0.02,VWS V14.01,2013-05-14 20:50:00,
2013-05-14 16:55:00,59.3,26.2,30.03,SW,225,7.0,11.0,28,0.00,,---,0.02,VWS V14.01,2013-05-14 20:55:00,
2013-05-14 17:00:00,59.0,24.2,30.03,SSW,205,7.0,15.0,26,0.00,,---,0.02,VWS V14.01,2013-05-14 21:00:00,
2013-05-14 17:06:00,59.0,24.2,30.03,WSW,240,2.0,12.0,26,0.00,,---,0.02,VWS V14.01,2013-05-14 21:06:00,
2013-05-14 17:11:00,59.3,24.4,30.03,SW,227,8.0,13.0,26,0.00,,---,0.02,VWS V14.01,2013-05-14 21:11:00,
2013-05-14 17:15:00,59.0,24.2,30.03,SW,216,13.0,15.0,26,0.00,,---,0.02,VWS V14.01,2013-05-14 21:15:00,
2013-05-14 17:16:00,59.0,24.2,30.03,SW,230,8.0,15.0,26,0.00,,---,0.02,VWS V14.01,2013-05-14 21:16:00,
2013-05-14 17:21:00,59.3,25.4,30.03,NNW,329,6.0,13.0,27,0.00,,---,0.02,VWS V14.01,2013-05-14 21:21:00,
2013-05-14 17:26:00,59.6,25.6,30.03,WSW,242,9.0,13.0,27,0.00,,---,0.02,VWS V14.01,2013-05-14 21:26:00,
2013-05-14 17:30:00,59.5,25.5,30.03,WNW,298,9.0,16.0,27,0.00,,---,0.02,VWS V14.01,2013-05-14 21:30:00,
2013-05-14 17:31:00,59.6,25.6,30.03,NW,311,7.0,16.0,27,0.00,,---,0.02,VWS V14.01,2013-05-14 21:31:00,
2013-05-14 17:36:00,59.4,25.4,30.03,West,269,6.0,14.0,27,0.00,,---,0.02,VWS V14.01,2013-05-14 21:36:00,
2013-05-14 17:41:00,59.6,25.6,30.03,West,261,6.0,15.0,27,0.00,,---,0.02,VWS V14.01,2013-05-14 21:41:00,
2013-05-14 17:45:00,59.7,24.8,30.03,West,273,6.0,16.0,26,0.00,,---,0.02,VWS V14.01,2013-05-14 21:45:00,
2013-05-14 17:46:00,59.7,24.8,30.03,West,273,6.0,16.0,26,0.00,,---,0.02,VWS V14.01,2013-05-14 21:46:00,
2013-05-14 17:51:00,59.4,24.5,30.03,West,266,4.0,10.0,26,0.00,,---,0.02,VWS V14.01,2013-05-14 21:51:00,
2013-05-14 17:56:00,59.4,23.6,30.03,SW,229,3.0,11.0,25,0.00,,---,0.02,VWS V14.01,2013-05-14 21:56:00,
2013-05-14 18:00:00,59.6,25.6,30.02,West,264,3.0,11.0,27,0.00,,---,0.02,VWS V14.01,2013-05-14 22:00:00,
2013-05-14 18:01:00,59.6,25.6,30.02,West,264,3.0,11.0,27,0.00,,---,0.02,VWS V14.01,2013-05-14 22:01:00,
2013-05-14 18:06:00,59.9,25.0,30.02,WNW,290,8.0,15.0,26,0.00,,---,0.02,VWS V14.01,2013-05-14 22:06:00,
2013-05-14 18:11:00,59.7,23.9,30.02,SW,233,4.0,15.0,25,0.00,,---,0.02,VWS V14.01,2013-05-14 22:11:00,
2013-05-14 18:15:00,59.8,23.9,30.02,WNW,300,8.0,15.0,25,0.00,,---,0.02,VWS V14.01,2013-05-14 22:15:00,
2013-05-14 18:16:00,59.8,23.9,30.02,NNW,338,8.0,8.0,25,0.00,,---,0.02,VWS V14.01,2013-05-14 22:16:00,
2013-05-14 18:21:00,59.8,23.9,30.02,NNW,333,7.0,10.0,25,0.00,,---,0.02,VWS V14.01,2013-05-14 22:21:00,
2013-05-14 18:26:00,59.9,25.0,30.02,WNW,284,6.0,10.0,26,0.00,,---,0.02,VWS V14.01,2013-05-14 22:26:00,
2013-05-14 18:30:00,59.6,24.7,30.02,NNW,327,4.0,10.0,26,0.00,,---,0.02,VWS V14.01,2013-05-14 22:30:00,
2013-05-14 18:31:00,59.6,23.8,30.02,NNW,341,5.0,6.0,25,0.00,,---,0.02,VWS V14.01,2013-05-14 22:31:00,
2013-05-14 18:36:00,59.7,24.8,30.02,NW,316,3.0,11.0,26,0.00,,---,0.02,VWS V14.01,2013-05-14 22:36:00,
2013-05-14 18:41:00,59.6,23.8,30.03,WNW,286,8.0,13.0,25,0.00,,---,0.02,VWS V14.01,2013-05-14 22:41:00,
2013-05-14 18:45:00,59.5,25.5,30.03,WSW,244,5.0,13.0,27,0.00,,---,0.02,VWS V14.01,2013-05-14 22:45:00,
2013-05-14 18:46:00,59.5,25.5,30.03,WNW,298,4.0,5.0,27,0.00,,---,0.02,VWS V14.01,2013-05-14 22:46:00,
2013-05-14 18:51:00,59.4,23.6,30.03,NW,313,2.0,10.0,25,0.00,,---,0.02,VWS V14.01,2013-05-14 22:51:00,
2013-05-14 18:56:00,59.1,24.3,30.03,NW,319,3.0,11.0,26,0.00,,---,0.02,VWS V14.01,2013-05-14 22:56:00,
2013-05-14 19:00:00,59.2,25.3,30.03,NNW,340,9.0,11.0,27,0.00,,---,0.02,VWS V14.01,2013-05-14 23:00:00,
2013-05-14 19:01:00,59.2,25.3,30.03,NNW,344,6.0,9.0,27,0.00,,---,0.02,VWS V14.01,2013-05-14 23:01:00,
2013-05-14 19:06:00,59.0,25.1,30.03,WNW,286,8.0,10.0,27,0.00,,---,0.02,VWS V14.01,2013-05-14 23:06:00,
2013-05-14 19:11:00,59.0,25.1,30.03,NW,304,5.0,10.0,27,0.00,,---,0.02,VWS V14.01,2013-05-14 23:11:00,
2013-05-14 19:15:00,59.0,25.1,30.03,NW,311,9.0,10.0,27,0.00,,---,0.02,VWS V14.01,2013-05-14 23:15:00,
2013-05-14 19:17:00,59.0,25.1,30.03,NNW,329,11.0,11.0,27,0.00,,---,0.02,VWS V14.01,2013-05-14 23:17:00,
2013-05-14 19:22:00,58.8,24.9,30.03,WNW,299,3.0,11.0,27,0.00,,---,0.02,VWS V14.01,2013-05-14 23:22:00,
2013-05-14 19:27:00,58.8,25.8,30.03,NW,308,2.0,11.0,28,0.00,,---,0.02,VWS V14.01,2013-05-14 23:27:00,
2013-05-14 19:30:00,58.7,24.8,30.03,West,278,4.0,11.0,27,0.00,,---,0.02,VWS V14.01,2013-05-14 23:30:00,
2013-05-14 19:32:00,58.6,24.8,30.03,WNW,303,4.0,6.0,27,0.00,,---,0.02,VWS V14.01,2013-05-14 23:32:00,
2013-05-14 19:37:00,58.5,25.5,30.03,NW,307,2.0,6.0,28,0.00,,---,0.02,VWS V14.01,2013-05-14 23:37:00,
2013-05-14 19:42:00,58.3,25.4,30.03,WNW,285,0.0,6.0,28,0.00,,---,0.02,VWS V14.01,2013-05-14 23:42:00,
2013-05-14 19:45:00,58.0,25.1,30.03,WSW,255,0.0,6.0,28,0.00,,---,0.02,VWS V14.01,2013-05-14 23:45:00,
2013-05-14 19:47:00,57.9,25.0,30.03,WSW,255,0.0,0.0,28,0.00,,---,0.02,VWS V14.01,2013-05-14 23:47:00,
2013-05-14 19:52:00,57.6,24.8,30.03,WSW,255,1.0,2.0,28,0.00,,---,0.02,VWS V14.01,2013-05-14 23:52:00,
2013-05-14 19:57:00,57.3,25.3,30.03,WSW,255,0.0,2.0,29,0.00,,---,0.02,VWS V14.01,2013-05-14 23:57:00,
2013-05-14 20:00:00,56.9,25.8,30.02,WSW,255,2.0,2.0,30,0.00,,---,0.02,VWS V14.01,2013-05-15 00:00:00,
2013-05-14 20:02:00,56.8,25.7,30.02,WSW,255,0.0,2.0,30,0.00,,---,0.02,VWS V14.01,2013-05-15 00:02:00,
2013-05-14 20:07:00,56.3,26.1,30.02,WSW,255,0.0,2.0,31,0.00,,---,0.02,VWS V14.01,2013-05-15 00:07:00,
2013-05-14 20:12:00,55.9,24.9,30.02,WSW,255,0.0,2.0,30,0.00,,---,0.02,VWS V14.01,2013-05-15 00:12:00,
2013-05-14 20:15:00,55.5,26.9,30.02,WSW,255,0.0,2.0,33,0.00,,---,0.02,VWS V14.01,2013-05-15 00:15:00,
2013-05-14 20:17:00,55.4,26.8,30.03,WSW,255,0.0,0.0,33,0.00,,---,0.02,VWS V14.01,2013-05-15 00:17:00,
2013-05-14 20:22:00,54.9,27.1,30.03,WSW,255,0.0,0.0,34,0.00,,---,0.02,VWS V14.01,2013-05-15 00:22:00,
2013-05-14 20:27:00,54.4,27.3,30.03,WSW,255,0.0,0.0,35,0.00,,---,0.02,VWS V14.01,2013-05-15 00:27:00,
2013-05-14 20:30:00,54.0,27.7,30.03,WSW,255,0.0,0.0,36,0.00,,---,0.02,VWS V14.01,2013-05-15 00:30:00,
2013-05-14 20:32:00,53.9,26.9,30.03,WSW,255,0.0,0.0,35,0.00,,---,0.02,VWS V14.01,2013-05-15 00:32:00,
2013-05-14 20:37:00,53.3,29.0,30.03,WSW,255,0.0,0.0,39,0.00,,---,0.02,VWS V14.01,2013-05-15 00:37:00,
2013-05-14 20:42:00,52.8,27.9,30.03,WSW,255,0.0,0.0,38,0.00,,---,0.02,VWS V14.01,2013-05-15 00:42:00,
2013-05-14 20:45:00,52.4,28.2,30.03,WSW,255,0.0,0.0,39,0.00,,---,0.02,VWS V14.01,2013-05-15 00:45:00,
2013-05-14 20:47:00,52.2,28.0,30.03,WSW,255,0.0,0.0,39,0.00,,---,0.02,VWS V14.01,2013-05-15 00:47:00,
2013-05-14 20:52:00,51.6,26.8,30.03,WSW,255,0.0,0.0,38,0.00,,---,0.02,VWS V14.01,2013-05-15 00:52:00,
2013-05-14 20:57:00,51.2,27.7,30.03,WSW,255,0.0,0.0,40,0.00,,---,0.02,VWS V14.01,2013-05-15 00:57:00,
2013-05-14 21:00:00,51.0,28.1,30.03,WSW,255,0.0,0.0,41,0.00,,---,0.02,VWS V14.01,2013-05-15 01:00:00,
2013-05-14 21:02:00,50.9,28.6,30.03,WSW,255,0.0,0.0,42,0.00,,---,0.02,VWS V14.01,2013-05-15 01:02:00,
2013-05-14 21:07:00,50.7,29.6,30.04,WSW,255,0.0,0.0,44,0.00,,---,0.02,VWS V14.01,2013-05-15 01:07:00,
2013-05-14 21:12:00,50.4,28.8,30.04,WSW,255,0.0,0.0,43,0.00,,---,0.02,VWS V14.01,2013-05-15 01:12:00,
2013-05-14 21:15:00,50.1,29.6,30.04,WSW,255,0.0,0.0,45,0.00,,---,0.02,VWS V14.01,2013-05-15 01:15:00,
2013-05-14 21:17:00,50.0,29.5,30.04,WSW,255,0.0,0.0,45,0.00,,---,0.02,VWS V14.01,2013-05-15 01:17:00,
2013-05-14 21:22:00,49.7,30.3,30.04,WSW,255,0.0,0.0,47,0.00,,---,0.02,VWS V14.01,2013-05-15 01:22:00,
2013-05-14 21:28:00,49.5,29.6,30.04,WSW,255,0.0,0.0,46,0.00,,---,0.02,VWS V14.01,2013-05-15 01:28:00,
2013-05-14 21:30:00,49.4,29.5,30.05,WSW,255,0.0,0.0,46,0.00,,---,0.02,VWS V14.01,2013-05-15 01:30:00,
2013-05-14 21:33:00,49.3,29.4,30.05,WSW,255,0.0,0.0,46,0.00,,---,0.02,VWS V14.01,2013-05-15 01:33:00,
2013-05-14 21:38:00,49.0,30.2,30.05,WSW,255,0.0,0.0,48,0.00,,---,0.02,VWS V14.01,2013-05-15 01:38:00,
2013-05-14 21:43:00,48.6,30.3,30.05,WSW,255,0.0,0.0,49,0.00,,---,0.02,VWS V14.01,2013-05-15 01:43:00,
2013-05-14 21:45:00,48.4,30.1,30.05,WSW,255,0.0,0.0,49,0.00,,---,0.02,VWS V14.01,2013-05-15 01:45:00,
2013-05-14 21:48:00,48.3,30.5,30.05,WSW,255,0.0,0.0,50,0.00,,---,0.02,VWS V14.01,2013-05-15 01:48:00,
2013-05-14 21:53:00,48.3,30.5,30.05,WSW,255,0.0,0.0,50,0.00,,---,0.02,VWS V14.01,2013-05-15 01:53:00,
2013-05-14 21:58:00,48.2,30.9,30.06,WSW,255,0.0,0.0,51,0.00,,---,0.02,VWS V14.01,2013-05-15 01:58:00,
2013-05-14 22:00:00,48.1,31.3,30.06,WSW,255,0.0,0.0,52,0.00,,---,0.02,VWS V14.01,2013-05-15 02:00:00,
2013-05-14 22:03:00,48.0,31.2,30.06,WSW,255,0.0,0.0,52,0.00,,---,0.02,VWS V14.01,2013-05-15 02:03:00,
2013-05-14 22:08:00,47.8,31.5,30.06,WSW,255,0.0,0.0,53,0.01,,---,0.03,VWS V14.01,2013-05-15 02:08:00,
2013-05-14 22:13:00,47.5,31.7,30.06,WSW,255,0.0,0.0,54,0.01,,---,0.03,VWS V14.01,2013-05-15 02:13:00,
2013-05-14 22:15:00,47.3,31.5,30.06,WSW,255,0.0,0.0,54,0.01,,---,0.03,VWS V14.01,2013-05-15 02:15:00,
2013-05-14 22:18:00,47.2,31.4,30.06,WSW,255,0.0,0.0,54,0.01,,---,0.03,VWS V14.01,2013-05-15 02:18:00,
2013-05-14 22:23:00,46.9,31.1,30.06,WSW,255,0.0,0.0,54,0.01,,---,0.03,VWS V14.01,2013-05-15 02:23:00,
2013-05-14 22:28:00,46.6,31.3,30.07,WSW,255,0.0,0.0,55,0.01,,---,0.03,VWS V14.01,2013-05-15 02:28:00,
2013-05-14 22:30:00,46.4,31.1,30.06,WSW,255,0.0,0.0,55,0.01,,---,0.03,VWS V14.01,2013-05-15 02:30:00,
2013-05-14 22:33:00,46.3,31.0,30.07,WSW,255,0.0,0.0,55,0.01,,---,0.03,VWS V14.01,2013-05-15 02:33:00,
2013-05-14 22:38:00,46.0,30.3,30.07,WSW,255,0.0,0.0,54,0.01,,---,0.03,VWS V14.01,2013-05-15 02:38:00,
2013-05-14 22:43:00,46.1,30.9,30.07,WSW,255,0.0,0.0,55,0.01,,---,0.03,VWS V14.01,2013-05-15 02:43:00,
2013-05-14 22:45:00,46.1,30.9,30.07,WSW,255,0.0,0.0,55,0.01,,---,0.03,VWS V14.01,2013-05-15 02:45:00,
2013-05-14 22:48:00,46.2,31.4,30.07,WSW,255,0.0,0.0,56,0.01,,---,0.03,VWS V14.01,2013-05-15 02:48:00,
2013-05-14 22:53:00,46.3,31.5,30.07,WSW,255,0.0,0.0,56,0.01,,---,0.03,VWS V14.01,2013-05-15 02:53:00,
2013-05-14 22:59:00,46.3,31.9,30.07,WSW,255,0.0,0.0,57,0.01,,---,0.03,VWS V14.01,2013-05-15 02:59:00,
2013-05-14 23:00:00,46.2,32.2,30.07,WSW,255,0.0,0.0,58,0.01,,---,0.03,VWS V14.01,2013-05-15 03:00:00,
2013-05-14 23:04:00,46.1,32.2,30.07,WSW,255,0.0,0.0,58,0.01,,---,0.03,VWS V14.01,2013-05-15 03:04:00,
2013-05-14 23:09:00,45.6,31.7,30.06,WSW,255,0.0,0.0,58,0.01,,---,0.03,VWS V14.01,2013-05-15 03:09:00,
2013-05-14 23:14:00,45.1,31.6,30.06,WSW,255,0.0,0.0,59,0.01,,---,0.03,VWS V14.01,2013-05-15 03:14:00,
2013-05-14 23:15:00,45.0,31.5,30.06,WSW,255,0.0,0.0,59,0.01,,---,0.03,VWS V14.01,2013-05-15 03:15:00,
2013-05-14 23:19:00,44.9,31.9,30.06,WSW,255,0.0,0.0,60,0.00,,---,0.03,VWS V14.01,2013-05-15 03:19:00,
2013-05-14 23:24:00,44.6,31.6,30.06,WSW,255,0.0,0.0,60,0.00,,---,0.03,VWS V14.01,2013-05-15 03:24:00,
2013-05-14 23:29:00,44.7,31.7,30.06,WSW,255,0.0,0.0,60,0.00,,---,0.03,VWS V14.01,2013-05-15 03:29:00,
2013-05-14 23:30:00,44.6,31.6,30.06,WSW,255,0.0,0.0,60,0.00,,---,0.03,VWS V14.01,2013-05-15 03:30:00,
2013-05-14 23:34:00,44.4,31.8,30.06,WSW,255,0.0,0.0,61,0.00,,---,0.03,VWS V14.01,2013-05-15 03:34:00,
2013-05-14 23:39:00,43.8,31.2,30.06,WSW,255,0.0,0.0,61,0.00,,---,0.03,VWS V14.01,2013-05-15 03:39:00,
2013-05-14 23:44:00,43.7,31.5,30.06,WSW,255,0.0,0.0,62,0.00,,---,0.03,VWS V14.01,2013-05-15 03:44:00,
2013-05-14 23:45:00,43.6,31.5,30.06,WSW,255,0.0,0.0,62,0.00,,---,0.03,VWS V14.01,2013-05-15 03:45:00,
2013-05-14 23:49:00,43.5,31.8,30.07,WSW,255,0.0,0.0,63,0.00,,---,0.03,VWS V14.01,2013-05-15 03:49:00,
2013-05-14 23:54:00,43.0,32.1,30.07,WSW,255,0.0,0.0,65,0.00,,---,0.03,VWS V14.01,2013-05-15 03:54:00,
2013-05-14 23:59:00,42.9,32.0,30.06,WSW,255,0.0,0.0,65,0.00,,---,0.03,VWS V14.01,2013-05-15 03:59:00,